FW6992 Weather Reports


time (UTC)temp
C
wind
direction
speed
KPH
gust
KPH
rain 1hr
cm
rain 24hr
cm
rain mn
cm
humidity
%
barometer
mb
20260510054936 13 325 0.0 1.6 0.00 0.00 0.00 78 1012.6
20260510054431 14 256 0.0 1.6 0.00 0.00 0.00 77 1012.2
20260510053926 14 314 0.0 3.2 0.00 0.00 0.00 77 1012.3
20260510053422 14 264 0.0 1.6 0.00 0.00 0.00 77 1012.4
20260510052918 14 267 0.0 1.6 0.00 0.00 0.00 79 1012.5
20260510052414 13 327 0.0 0.0 0.00 0.00 0.00 79 1012.5
20260510051911 13 325 0.0 0.0 0.00 0.00 0.00 79 1012.4
20260510051407 14 74 0.0 0.0 0.00 0.00 0.00 79 1012.7
20260510050904 14 74 0.0 0.0 0.00 0.00 0.00 78 1012.6
20260510050400 14 343 0.0 0.0 0.00 0.00 0.00 78 1012.3
20260510045857 14 314 0.0 0.0 0.00 0.00 0.00 78 1012.4
20260510045354 14 325 0.0 1.6 0.00 0.00 0.00 78 1012.6
20260510044851 14 325 0.0 0.0 0.00 0.00 0.00 77 1012.5
20260510044348 14 110 0.0 0.0 0.00 0.00 0.00 77 1012.5
20260510043845 15 110 0.0 0.0 0.00 0.00 0.00 76 1012.5
20260510043340 15 110 0.0 0.0 0.00 0.00 0.00 75 1012.4
20260510042839 15 343 0.0 0.0 0.00 0.00 0.00 74 1012.8
20260510042334 15 343 0.0 0.0 0.00 0.00 0.00 74 1012.6
20260510041831 15 337 0.0 0.0 0.00 0.00 0.00 74 1012.5
20260510041328 15 347 0.0 1.6 0.00 0.00 0.00 74 1012.6
20260510040825 15 343 0.0 0.0 0.00 0.00 0.00 73 1012.5
20260510040322 15 330 0.0 0.0 0.00 0.00 0.00 73 1012.3
20260510035817 15 330 0.0 0.0 0.00 0.00 0.00 73 1012.5
20260510035314 15 330 0.0 0.0 0.00 0.00 0.00 73 1012.4
20260510034809 16 347 0.0 0.0 0.00 0.00 0.00 72 1012.3
20260510034307 16 304 0.0 0.0 0.00 0.00 0.00 72 1012.6
20260510033803 16 311 0.0 0.0 0.00 0.00 0.00 71 1012.5
20260510033301 16 343 0.0 1.6 0.00 0.00 0.00 71 1012.5
20260510032758 16 330 0.0 0.0 0.00 0.00 0.00 70 1012.5
20260510032254 16 330 0.0 0.0 0.00 0.00 0.00 70 1012.3
20260510031750 16 330 0.0 0.0 0.00 0.00 0.00 70 1012.3
20260510031246 16 330 0.0 0.0 0.00 0.00 0.00 69 1012.3
20260510030744 16 330 0.0 0.0 0.00 0.00 0.00 69 1012.1
20260510030237 16 330 0.0 1.6 0.00 0.00 0.00 68 1012.1
20260510025734 16 330 0.0 1.6 0.00 0.00 0.00 68 1012.0
20260510025231 16 330 0.0 1.6 0.00 0.00 0.00 68 1012.1
20260510024728 17 325 0.0 0.0 0.00 0.00 0.00 67 1012.2
20260510024225 17 330 0.0 0.0 0.00 0.00 0.00 67 1011.9
20260510023720 17 71 0.0 1.6 0.00 0.00 0.00 66 1011.8
20260510023218 17 27 0.0 0.0 0.00 0.00 0.00 66 1012.0
20260510022714 17 330 0.0 1.6 0.00 0.00 0.00 65 1011.8
20260510022208 17 327 0.0 0.0 0.00 0.00 0.00 64 1011.7
20260510021703 18 318 0.0 3.2 0.00 0.00 0.00 63 1011.7
20260510021201 17 325 3.2 3.2 0.00 0.00 0.00 64 1011.6
20260510020656 17 324 0.0 1.6 0.00 0.00 0.00 64 1011.6
20260510020151 17 330 0.0 0.0 0.00 0.00 0.00 64 1011.3
20260510015647 17 330 0.0 0.0 0.00 0.00 0.00 64 1011.3
20260510015144 17 330 0.0 0.0 0.00 0.00 0.00 64 1011.3
20260510014644 17 330 0.0 0.0 0.00 0.00 0.00 63 1010.8
20260510014142 18 330 0.0 0.0 0.00 0.00 0.00 64 1011.2
20260510013637 18 251 0.0 0.0 0.00 0.00 0.00 63 1011.0
20260510013133 18 58 0.0 0.0 0.00 0.00 0.00 63 1010.9
20260510012633 18 58 0.0 0.0 0.00 0.00 0.00 63 1011.0
20260510012129 18 336 0.0 0.0 0.00 0.00 0.00 62 1010.7
20260510011628 18 336 0.0 0.0 0.00 0.00 0.00 62 1010.8
20260510011124 18 218 0.0 0.0 0.00 0.00 0.00 61 1010.8
20260510010621 18 218 0.0 0.0 0.00 0.00 0.00 61 1010.5
20260510010118 18 336 0.0 0.0 0.00 0.00 0.00 60 1010.3
20260510005613 18 343 0.0 0.0 0.00 0.00 0.00 59 1010.4
20260510005111 19 6 0.0 0.0 0.00 0.00 0.00 59 1010.3
20260510004609 19 220 0.0 3.2 0.00 0.00 0.00 59 1010.2
20260510004107 19 343 0.0 0.0 0.00 0.00 0.00 58 1010.1
20260510003603 19 267 0.0 0.0 0.00 0.00 0.00 58 1010.1
20260510003059 20 261 0.0 0.0 0.00 0.00 0.00 58 1010.2
20260510002555 20 261 0.0 0.0 0.00 0.00 0.00 57 1010.1
20260510002052 20 251 0.0 0.0 0.00 0.00 0.00 56 1010.0
20260510001549 20 325 0.0 1.6 0.00 0.00 0.00 56 1010.1
20260510001048 20 267 0.0 0.0 0.00 0.00 0.00 55 1009.9
20260510000548 20 304 0.0 1.6 0.00 0.00 0.00 54 1009.8
20260510000044 20 290 0.0 0.0 0.00 0.00 0.00 53 1009.6
20260509235541 21 290 0.0 0.0 0.00 0.00 0.00 53 1009.7
20260509235038 21 264 0.0 1.6 0.00 0.00 0.00 52 1009.6
20260509234534 21 251 0.0 0.0 0.00 0.00 0.00 51 1009.6
20260509234032 21 347 0.0 4.8 0.00 0.00 0.00 50 1009.8
20260509233529 21 238 0.0 3.2 0.00 0.00 0.00 51 1009.8
20260509233026 21 81 0.0 1.6 0.00 0.00 0.00 52 1009.4
20260509232523 21 331 0.0 3.2 0.00 0.00 0.00 50 1009.6
20260509232020 21 264 0.0 3.2 0.00 0.00 0.00 49 1009.6
20260509231516 21 320 0.0 3.2 0.00 0.00 0.00 50 1009.4
20260509231014 22 273 0.0 1.6 0.00 0.00 0.00 50 1009.7
20260509230511 22 266 0.0 3.2 0.00 0.00 0.00 49 1009.6
20260509230008 22 315 1.6 3.2 0.00 0.00 0.00 48 1009.7
20260509225503 22 347 0.0 3.2 0.00 0.00 0.00 47 1009.7
20260509224959 22 293 3.2 3.2 0.00 0.00 0.00 47 1009.5
20260509224454 22 310 3.2 3.2 0.00 0.00 0.00 47 1009.6
20260509223952 23 286 1.6 3.2 0.00 0.00 0.00 47 1009.6
20260509223448 23 305 3.2 6.4 0.00 0.00 0.00 44 1009.7
20260509222946 23 304 0.0 3.2 0.00 0.00 0.00 46 1009.3
20260509222441 23 251 3.2 4.8 0.00 0.00 0.00 45 1009.5
20260509221937 23 201 0.0 3.2 0.00 0.00 0.00 46 1009.7
20260509221434 23 297 3.2 11.3 0.00 0.00 0.00 43 1009.6
20260509220929 23 299 1.6 3.2 0.00 0.00 0.00 44 1009.6
20260509220426 23 50 0.0 3.2 0.00 0.00 0.00 43 1009.5
20260509215922 23 299 3.2 8.0 0.00 0.00 0.00 43 1009.4
20260509215417 23 293 0.0 3.2 0.00 0.00 0.00 44 1009.4
20260509214915 23 305 0.0 4.8 0.00 0.00 0.00 43 1009.4
20260509214412 23 240 0.0 3.2 0.00 0.00 0.00 44 1009.7
20260509213909 23 313 4.8 6.4 0.00 0.00 0.00 42 1009.5
20260509213405 23 27 0.0 3.2 0.00 0.00 0.00 43 1009.6
20260509212903 23 4 0.0 3.2 0.00 0.00 0.00 43 1009.4
20260509212400 24 189 1.6 3.2 0.00 0.00 0.00 43 1009.4
20260509211856 25 306 1.6 4.8 0.00 0.00 0.00 42 1009.5
20260509211352 25 7 1.6 3.2 0.00 0.00 0.00 41 1009.3
20260509210848 24 2 0.0 8.0 0.00 0.00 0.00 40 1009.3
20260509210346 25 145 0.0 6.4 0.00 0.00 0.00 44 1009.5
20260509205846 25 83 3.2 4.8 0.00 0.00 0.00 40 1009.4
20260509205340 26 57 1.6 3.2 0.00 0.00 0.00 42 1009.2
20260509204837 25 149 1.6 6.4 0.00 0.00 0.00 43 1009.2
20260509204333 26 220 0.0 4.8 0.00 0.00 0.00 39 1009.1
20260509203830 26 233 0.0 1.6 0.00 0.00 0.00 37 1009.2
20260509203327 25 146 1.6 3.2 0.00 0.00 0.00 40 1009.2
20260509202823 26 301 1.6 3.2 0.00 0.00 0.00 39 1009.4
20260509202319 25 220 0.0 9.7 0.00 0.00 0.00 38 1009.0
20260509201818 26 236 3.2 6.4 0.00 0.00 0.00 36 1009.1
20260509201316 27 356 0.0 3.2 0.00 0.00 0.00 36 1009.3
20260509200812 26 290 0.0 4.8 0.00 0.00 0.00 36 1009.4
20260509200307 26 258 3.2 4.8 0.00 0.00 0.00 35 1009.3
20260509195804 27 349 0.0 3.2 0.00 0.00 0.00 38 1009.1
20260509195259 26 211 3.2 6.4 0.00 0.00 0.00 38 1009.3
20260509194759 26 182 1.6 8.0 0.00 0.00 0.00 38 1009.4
20260509194255 26 273 3.2 6.4 0.00 0.00 0.00 36 1009.5
20260509193752 26 265 3.2 6.4 0.00 0.00 0.00 37 1009.4
20260509193247 26 228 1.6 8.0 0.00 0.00 0.00 36 1009.7
20260509192743 26 289 6.4 8.0 0.00 0.00 0.00 35 1009.6
20260509192238 26 211 8.0 8.0 0.00 0.00 0.00 33 1009.5
20260509191734 26 171 1.6 3.2 0.00 0.00 0.00 39 1009.8
20260509191231 25 318 1.6 6.4 0.00 0.00 0.00 39 1009.8
20260509190727 25 173 3.2 4.8 0.00 0.00 0.00 39 1009.8
20260509190224 25 276 1.6 6.4 0.00 0.00 0.00 43 1009.9
20260509185721 23 324 4.8 6.4 0.00 0.00 0.00 40 1010.2
20260509185217 25 200 4.8 8.0 0.00 0.00 0.00 39 1010.0
20260509184715 25 336 3.2 4.8 0.00 0.00 0.00 38 1010.1
20260509184212 25 305 4.8 8.0 0.00 0.00 0.00 38 1010.2
20260509183708 25 316 3.2 6.4 0.00 0.00 0.00 39 1010.3
20260509183209 24 224 1.6 6.4 0.00 0.00 0.00 40 1010.1
20260509182705 24 176 3.2 6.4 0.00 0.00 0.00 41 1010.5
20260509182203 23 175 0.0 6.4 0.00 0.00 0.00 42 1010.9
20260509181700 22 352 1.6 4.8 0.00 0.00 0.00 47 1010.8
20260509181157 22 209 4.8 6.4 0.00 0.00 0.00 47 1011.0
20260509180654 23 326 0.0 4.8 0.00 0.00 0.00 48 1011.0
20260509180150 22 325 0.0 4.8 0.00 0.00 0.00 51 1011.1
20260509175647 23 214 3.2 4.8 0.00 0.00 0.00 47 1011.3
20260509175144 23 300 1.6 6.4 0.00 0.00 0.00 48 1011.4
20260509174640 23 325 3.2 4.8 0.00 0.00 0.00 48 1011.4
20260509174140 23 67 4.8 4.8 0.00 0.00 0.00 52 1011.2
20260509173636 23 254 0.0 6.4 0.00 0.00 0.00 48 1011.6
20260509173132 22 340 3.2 6.4 0.00 0.00 0.00 49 1011.3
20260509172628 22 296 3.2 12.9 0.00 0.00 0.00 48 1011.5
20260509172125 22 202 6.4 6.4 0.00 0.00 0.00 50 1011.7
20260509171620 23 339 0.0 3.2 0.00 0.00 0.00 47 1011.7
20260509171117 22 76 0.0 4.8 0.00 0.00 0.00 50 1011.4
20260509170613 23 280 3.2 6.4 0.00 0.00 0.00 47 1011.9
20260509170109 21 289 3.2 9.7 0.00 0.00 0.00 50 1011.8
20260509165608 21 280 1.6 3.2 0.00 0.00 0.00 53 1011.7
20260509165103 20 273 0.0 6.4 0.00 0.00 0.00 53 1011.7
20260509164600 21 70 0.0 6.4 0.00 0.00 0.00 52 1011.7
20260509164055 20 316 3.2 9.7 0.00 0.00 0.00 52 1011.9
20260509163554 21 19 3.2 6.4 0.00 0.00 0.00 50 1011.8
20260509163049 21 173 0.0 3.2 0.00 0.00 0.00 52 1012.0
20260509162546 20 256 0.0 3.2 0.00 0.00 0.00 54 1011.9
20260509162042 20 316 3.2 3.2 0.00 0.00 0.00 53 1011.8
20260509161539 20 312 3.2 8.0 0.00 0.00 0.00 53 1012.0
20260509161039 20 232 3.2 3.2 0.00 0.00 0.00 55 1011.8
20260509160535 20 248 1.6 3.2 0.00 0.00 0.00 53 1012.1
20260509160031 20 104 3.2 3.2 0.00 0.00 0.00 53 1011.9
20260509155527 18 320 3.2 4.8 0.00 0.00 0.00 55 1012.2
20260509155023 18 49 3.2 3.2 0.00 0.00 0.00 56 1012.0
20260509154519 18 319 4.8 6.4 0.00 0.00 0.00 55 1012.1
20260509154017 17 340 3.2 6.4 0.00 0.00 0.00 58 1012.0
20260509153514 17 307 1.6 4.8 0.00 0.00 0.00 59 1012.2
20260509153011 17 158 1.6 3.2 0.00 0.00 0.00 60 1012.0
20260509152506 17 295 1.6 8.0 0.00 0.00 0.00 57 1012.2
20260509152003 18 285 3.2 3.2 0.00 0.00 0.00 59 1012.3
20260509151459 18 170 0.0 3.2 0.00 0.00 0.00 58 1012.4
20260509150958 17 198 1.6 3.2 0.00 0.00 0.00 59 1012.5
20260509150455 17 311 8.0 8.0 0.00 0.00 0.00 57 1012.7
20260509145953 17 94 3.2 3.2 0.00 0.00 0.00 58 1012.5
20260509145448 17 110 0.0 4.8 0.00 0.00 0.00 56 1012.6
20260509144943 18 113 4.8 4.8 0.00 0.00 0.00 54 1012.4
20260509144441 17 324 0.0 4.8 0.00 0.00 0.00 57 1012.4
20260509143938 17 82 3.2 8.0 0.00 0.00 0.00 56 1012.2
20260509143435 16 159 3.2 6.4 0.00 0.00 0.00 58 1012.2
20260509142931 16 89 1.6 3.2 0.00 0.00 0.00 59 1012.1
20260509142428 16 141 0.0 4.8 0.00 0.00 0.00 61 1012.4
20260509141923 15 165 1.6 3.2 0.00 0.00 0.00 60 1012.5
20260509141421 15 352 0.0 3.2 0.00 0.00 0.00 60 1012.7
20260509140918 15 143 3.2 4.8 0.00 0.00 0.00 60 1012.6
20260509140414 15 150 0.0 3.2 0.00 0.00 0.00 60 1012.8
20260509135912 15 316 4.8 4.8 0.00 0.00 0.00 61 1012.7
20260509135409 15 327 0.0 8.0 0.00 0.00 0.00 60 1013.0
20260509134907 14 93 1.6 3.2 0.00 0.00 0.00 61 1012.8
20260509134404 14 145 0.0 3.2 0.00 0.00 0.00 61 1012.8
20260509133901 14 43 0.0 1.6 0.00 0.00 0.00 63 1012.9
20260509133357 14 144 0.0 3.2 0.00 0.00 0.00 62 1012.9
20260509132856 13 133 1.6 3.2 0.00 0.00 0.00 61 1013.1
20260509132354 13 118 1.6 3.2 0.00 0.00 0.00 62 1013.3
20260509131851 13 127 1.6 1.6 0.00 0.00 0.00 62 1013.0
20260509131347 13 163 0.0 3.2 0.00 0.00 0.00 63 1013.0
20260509130844 13 329 0.0 1.6 0.00 0.00 0.00 62 1013.3
20260509130339 13 43 0.0 1.6 0.00 0.00 0.00 61 1013.0
20260509125836 13 329 0.0 4.8 0.00 0.00 0.00 60 1013.1
20260509125333 13 234 1.6 6.4 0.00 0.00 0.00 60 1013.3
20260509124829 13 250 0.0 1.6 0.00 0.00 0.00 62 1013.1
20260509124326 13 76 0.0 3.2 0.00 0.00 0.00 61 1013.1
20260509123824 13 290 0.0 3.2 0.00 0.00 0.00 60 1013.2
20260509123321 13 50 0.0 3.2 0.00 0.00 0.00 63 1013.1
20260509122817 13 179 1.6 3.2 0.00 0.00 0.00 62 1013.1
20260509122314 12 82 3.2 3.2 0.00 0.00 0.00 64 1013.3
20260509121811 12 134 1.6 4.8 0.00 0.00 0.00 62 1013.3
20260509121308 12 290 0.0 4.8 0.00 0.00 0.00 64 1013.0
20260509120807 12 86 0.0 1.6 0.00 0.00 0.00 63 1013.4
20260509120304 12 131 0.0 4.8 0.00 0.00 0.00 62 1013.3
20260509115802 12 114 3.2 4.8 0.00 0.00 0.00 62 1013.1
20260509115258 12 105 3.2 3.2 0.00 0.00 0.00 63 1013.0
20260509114756 12 154 0.0 1.6 0.00 0.00 0.00 63 1013.1
20260509114255 12 150 0.0 3.2 0.00 0.00 0.00 64 1013.0
20260509113753 12 119 3.2 3.2 0.00 0.00 0.00 64 1012.9
20260509113250 11 120 0.0 4.8 0.00 0.00 0.00 64 1013.1
20260509112747 11 117 0.0 3.2 0.00 0.00 0.00 64 1013.1
20260509112244 11 352 1.6 3.2 0.00 0.00 0.00 64 1013.1
20260509111742 11 118 0.0 3.2 0.00 0.00 0.00 66 1013.1
20260509111238 11 134 3.2 4.8 0.00 0.00 0.00 66 1013.0
20260509110735 11 152 3.2 3.2 0.00 0.00 0.00 67 1012.8
20260509110232 11 165 3.2 4.8 0.00 0.00 0.00 68 1013.0
20260509105730 11 142 1.6 1.6 0.00 0.00 0.00 68 1012.8
20260509105227 10 118 1.6 3.2 0.00 0.00 0.00 68 1012.9
20260509104724 10 156 0.0 3.2 0.00 0.00 0.00 67 1012.8
20260509104221 10 189 0.0 1.6 0.00 0.00 0.00 67 1013.1
20260509103719 10 95 0.0 1.6 0.00 0.00 0.00 67 1012.9
20260509103216 10 130 0.0 3.2 0.00 0.00 0.00 67 1013.0
20260509102714 10 126 0.0 3.2 0.00 0.00 0.00 66 1012.9
20260509102211 10 74 0.0 1.6 0.00 0.00 0.00 66 1012.9
20260509101707 10 172 0.0 3.2 0.00 0.00 0.00 66 1013.1
20260509101203 10 144 1.6 3.2 0.00 0.00 0.00 66 1012.9
20260509100701 10 91 0.0 3.2 0.00 0.00 0.00 65 1012.8
20260509100158 10 138 0.0 1.6 0.00 0.00 0.00 65 1012.8
20260509095655 10 196 0.0 3.2 0.00 0.00 0.00 65 1013.0
20260509095152 10 161 0.0 3.2 0.00 0.00 0.00 65 1012.8
20260509094649 10 120 1.6 3.2 0.00 0.00 0.00 65 1013.0
20260509094145 11 156 3.2 3.2 0.00 0.00 0.00 64 1012.8
20260509093644 11 144 1.6 3.2 0.00 0.00 0.00 64 1012.9
20260509093141 11 147 0.0 3.2 0.00 0.00 0.00 63 1012.9
20260509092639 11 152 0.0 3.2 0.00 0.00 0.00 63 1013.1
20260509092137 11 160 1.6 3.2 0.00 0.00 0.00 62 1013.0
20260509091635 11 160 1.6 3.2 0.00 0.00 0.00 61 1013.0
20260509091130 11 167 1.6 3.2 0.00 0.00 0.00 60 1013.1
20260509090628 11 151 3.2 3.2 0.00 0.00 0.00 61 1013.3
20260509090126 11 125 3.2 4.8 0.00 0.00 0.00 60 1013.0
20260509085623 11 123 1.6 3.2 0.00 0.00 0.00 61 1012.9
20260509085119 11 160 0.0 3.2 0.00 0.00 0.00 62 1013.0
20260509084616 11 158 3.2 3.2 0.00 0.00 0.00 62 1013.3
20260509084113 11 157 3.2 4.8 0.00 0.00 0.00 61 1013.2
20260509083611 11 184 1.6 3.2 0.00 0.00 0.00 61 1013.2
20260509083107 11 159 0.0 3.2 0.00 0.00 0.00 61 1013.2
20260509082605 11 142 3.2 3.2 0.00 0.00 0.00 61 1013.4
20260509082101 11 128 1.6 1.6 0.00 0.00 0.00 60 1013.2
20260509081558 11 158 1.6 3.2 0.00 0.00 0.00 60 1013.3
20260509081055 11 146 3.2 3.2 0.00 0.00 0.00 60 1013.1
20260509080553 11 148 3.2 3.2 0.00 0.00 0.00 61 1013.3
20260509080051 11 158 0.0 3.2 0.00 0.00 0.00 62 1013.5
20260509075548 11 158 0.0 1.6 0.00 0.00 0.00 61 1013.4
20260509075046 12 168 0.0 0.0 0.00 0.00 0.00 61 1013.5
20260509074543 12 134 0.0 0.0 0.00 0.00 0.00 58 1013.3
20260509074039 12 134 0.0 0.0 0.00 0.00 0.00 58 1013.3
20260509073536 12 134 0.0 0.0 0.00 0.00 0.00 57 1013.5
20260509073032 12 251 0.0 0.0 0.00 0.00 0.00 55 1013.6
20260509072529 12 251 0.0 0.0 0.00 0.00 0.00 55 1013.5
20260509072026 12 65 0.0 0.0 0.00 0.00 0.00 56 1013.4
20260509071522 12 195 0.0 0.0 0.00 0.00 0.00 56 1013.5
20260509071020 12 166 0.0 0.0 0.00 0.00 0.00 56 1013.3
20260509070517 12 187 0.0 1.6 0.00 0.00 0.00 56 1013.6
20260509070014 12 223 0.0 1.6 0.00 0.00 0.00 56 1013.7
20260509065509 12 220 0.0 1.6 0.00 0.00 0.00 55 1013.8
20260509065005 12 207 0.0 1.6 0.00 0.00 0.00 53 1013.9
20260509064503 12 220 0.0 1.6 0.00 0.00 0.00 53 1013.8
20260509064001 12 254 0.0 1.6 0.00 0.00 0.00 53 1013.9
20260509063456 12 219 1.6 1.6 0.00 0.00 0.00 53 1013.7
20260509062953 12 261 0.0 0.0 0.00 0.00 0.00 53 1014.1
20260509062450 12 207 0.0 0.0 0.00 0.00 0.00 52 1013.7
20260509061948 12 330 0.0 0.0 0.00 0.00 0.00 53 1013.7
20260509061445 12 330 0.0 1.6 0.00 0.00 0.00 53 1013.9
20260509060942 13 81 0.0 1.6 0.00 0.00 0.00 51 1014.0
20260509060440 13 223 0.0 1.6 0.00 0.00 0.00 52 1014.3
20260509055935 13 191 0.0 1.6 0.00 0.00 0.00 52 1014.2
20260509055430 13 44 1.6 1.6 0.00 0.00 0.00 51 1014.3